Hong Kong, Hong Kong

2:09 PM HKT on April 30, 2017 (GMT +0800)
Hong Kong International

Weather History for VHHH - August, 2013

Change the Weather History Date:

Monday, August 12, 2013

  Actual Average Record
Temperature  
Mean Temperature 88 °F -  
Max Temperature 93 °F 87 °F 93 °F (2005)
Min Temperature 82 °F 78 °F 78 °F (1997)
Cooling Degree Days 22    
Growing Degree Days 38 (Base 50)    
Moisture  
Dew Point 76 °F    
Average Humidity 66    
Maximum Humidity 79    
Minimum Humidity 52    
Precipitation  
Precipitation 0.00 in - - ()
Sea Level Pressure  
Sea Level Pressure 29.71 in    
Wind  
Wind Speed 7 mph ()    
Max Wind Speed 14 mph    
Max Gust Speed -    
Visibility 6.2 miles    
Events      
Averages and records for this station are not official NWS values.
T = Trace of Precipitation, MM = Missing Value Source: Averaged Metar Reports

Daily Weather History Graph

Daily Weather History Graph

Search for Another Location

Airport or City:

Trip Planner

Search our weather history database for the weather conditions in past years. The results will help you decide how hot, cold, wet, or windy it might be!

Date:

Astronomy

Aug. 12, 2013 Rise Set
Actual Time 6:00 AM HKT 6:58 PM HKT
Civil Twilight 5:37 AM HKT 7:21 PM HKT
Nautical Twilight 5:09 AM HKT 7:49 PM HKT
Astronomical Twilight 4:40 AM HKT 8:17 PM HKT
Moon 10:30 AM HKT (8/12) 10:17 PM HKT (8/12)
Length of Visible Light 13h 44m
Length of Day
12h 57m
Waxing Crescent, 26% of the Moon is Illuminated
Aug 12
Waxing Crescent
Aug 14
First Quarter
Aug 21
Full
Aug 28
Last Quarter
Sep 5
New

Hourly Weather History & Observations

Time (HKT) Temp. Heat Index Dew Point Humidity Pressure Visibility Wind Dir Wind Speed Gust Speed Precip Events Conditions
12:00 AM 86.0 °F 96.9 °F 77.0 °F 74% 29.77 in 6.2 mi ESE 9.2 mph - N/A   Partly Cloudy
12:30 AM 86.0 °F 96.9 °F 77.0 °F 74% 29.77 in 6.2 mi ESE 8.1 mph - N/A   Partly Cloudy
1:00 AM 86.0 °F 96.9 °F 77.0 °F 74% 29.77 in 6.2 mi ESE 9.2 mph - N/A   Partly Cloudy
1:30 AM 86.0 °F 96.9 °F 77.0 °F 74% 29.77 in 6.2 mi ESE 9.2 mph - N/A   Partly Cloudy
2:00 AM 84.2 °F 94.1 °F 77.0 °F 79% 29.77 in 6.2 mi East 8.1 mph - N/A   Partly Cloudy
2:30 AM 84.2 °F 94.1 °F 77.0 °F 79% 29.74 in 6.2 mi ESE 10.4 mph - N/A   Partly Cloudy
3:00 AM 84.2 °F 94.1 °F 77.0 °F 79% 29.74 in 6.2 mi East 6.9 mph - N/A   Partly Cloudy
3:30 AM 84.2 °F 94.1 °F 77.0 °F 79% 29.74 in 6.2 mi ESE 6.9 mph - N/A   Partly Cloudy
4:00 AM 84.2 °F 92.3 °F 75.2 °F 74% 29.74 in 6.2 mi East 4.6 mph - N/A   Partly Cloudy
4:30 AM 84.2 °F 94.1 °F 77.0 °F 79% 29.74 in 6.2 mi East 6.9 mph - N/A   Partly Cloudy
5:00 AM 84.2 °F 94.1 °F 77.0 °F 79% 29.74 in 6.2 mi East 5.8 mph - N/A   Partly Cloudy
5:30 AM 84.2 °F 94.1 °F 77.0 °F 79% 29.71 in 6.2 mi ENE 5.8 mph - N/A   Partly Cloudy
6:00 AM 82.4 °F 89.5 °F 75.2 °F 79% 29.71 in 6.2 mi NNE 3.5 mph - N/A   Partly Cloudy
6:30 AM 82.4 °F 89.5 °F 75.2 °F 79% 29.74 in 6.2 mi ENE 5.8 mph - N/A   Partly Cloudy
7:00 AM 82.4 °F 89.5 °F 75.2 °F 79% 29.74 in 6.2 mi ENE 4.6 mph - N/A   Partly Cloudy
7:30 AM 84.2 °F 92.3 °F 75.2 °F 74% 29.74 in 6.2 mi ESE 5.8 mph - N/A   Partly Cloudy
8:00 AM 86.0 °F 96.9 °F 77.0 °F 74% 29.74 in 6.2 mi ESE 4.6 mph - N/A   Partly Cloudy
8:30 AM 89.6 °F 102.2 °F 77.0 °F 66% 29.74 in 6.2 mi NE 5.8 mph - N/A   Partly Cloudy
9:00 AM 87.8 °F 97.6 °F 75.2 °F 66% 29.74 in 6.2 mi NE 6.9 mph - N/A   Partly Cloudy
9:30 AM 89.6 °F 99.8 °F 75.2 °F 62% 29.74 in 6.2 mi NNE 6.9 mph - N/A   Partly Cloudy
10:00 AM 91.4 °F 102.5 °F 75.2 °F 59% 29.74 in 6.2 mi NNE 6.9 mph - N/A   Partly Cloudy
10:30 AM 89.6 °F 98.2 °F 73.4 °F 59% 29.74 in 6.2 mi North 6.9 mph - N/A   Partly Cloudy
11:00 AM 91.4 °F 102.5 °F 75.2 °F 59% 29.74 in 6.2 mi North 9.2 mph - N/A   Partly Cloudy
11:30 AM 89.6 °F 99.8 °F 75.2 °F 62% 29.74 in 6.2 mi North 10.4 mph - N/A   Scattered Clouds
12:00 PM 91.4 °F 102.5 °F 75.2 °F 59% 29.74 in 6.2 mi North 9.2 mph - N/A   Scattered Clouds
12:30 PM 91.4 °F 102.5 °F 75.2 °F 59% 29.71 in 6.2 mi NNW 9.2 mph - N/A   Scattered Clouds
1:00 PM 91.4 °F 102.5 °F 75.2 °F 59% 29.71 in 6.2 mi West 10.4 mph - N/A   Partly Cloudy
1:30 PM 91.4 °F 105.1 °F 77.0 °F 63% 29.71 in 6.2 mi West 9.2 mph - N/A   Partly Cloudy
2:00 PM 91.4 °F 105.1 °F 77.0 °F 63% 29.68 in 6.2 mi West 9.2 mph - N/A   Partly Cloudy
2:30 PM 93.2 °F 107.2 °F 77.0 °F 59% 29.68 in 6.2 mi West 9.2 mph - N/A   Partly Cloudy
3:00 PM 91.4 °F 105.1 °F 77.0 °F 63% 29.68 in 6.2 mi West 9.2 mph - N/A   Partly Cloudy
3:30 PM 93.2 °F 107.2 °F 77.0 °F 59% 29.68 in 6.2 mi West 10.4 mph - N/A   Partly Cloudy
4:00 PM 91.4 °F 105.1 °F 77.0 °F 63% 29.65 in 6.2 mi WSW 11.5 mph - N/A   Partly Cloudy
4:30 PM 93.2 °F 102.4 °F 73.4 °F 52% 29.65 in 6.2 mi West 11.5 mph - N/A   Partly Cloudy
5:00 PM 93.2 °F 105.0 °F 75.2 °F 56% 29.62 in 6.2 mi West 10.4 mph - N/A   Partly Cloudy
5:30 PM 93.2 °F 105.0 °F 75.2 °F 56% 29.65 in 6.2 mi West 11.5 mph - N/A   Partly Cloudy
6:00 PM 91.4 °F 102.5 °F 75.2 °F 59% 29.65 in 6.2 mi West 9.2 mph - N/A   Partly Cloudy
6:30 PM 91.4 °F 98.4 °F 71.6 °F 52% 29.65 in 6.2 mi West 5.8 mph - N/A   Partly Cloudy
7:00 PM 91.4 °F 102.5 °F 75.2 °F 59% 29.65 in - WNW 4.6 mph - N/A   Clear
7:30 PM 91.4 °F 100.1 °F 73.4 °F 55% 29.65 in - Variable 1.2 mph - N/A   Clear
8:00 PM 89.6 °F 96.2 °F 71.6 °F 55% 29.68 in - ENE 6.9 mph - N/A   Clear
8:30 PM 87.8 °F 93.8 °F 71.6 °F 58% 29.68 in 6.2 mi ESE 8.1 mph - N/A   Partly Cloudy
9:00 PM 87.8 °F 95.6 °F 73.4 °F 62% 29.68 in 6.2 mi SSE 9.2 mph - N/A   Partly Cloudy
9:30 PM 89.6 °F 98.2 °F 73.4 °F 59% 29.68 in 6.2 mi ESE 11.5 mph - N/A   Partly Cloudy
10:00 PM 87.8 °F 97.6 °F 75.2 °F 66% 29.68 in 6.2 mi ESE 10.4 mph - N/A   Partly Cloudy
10:30 PM 87.8 °F 97.6 °F 75.2 °F 66% 29.71 in 6.2 mi ESE 11.5 mph - N/A   Partly Cloudy
11:00 PM 87.8 °F 97.6 °F 75.2 °F 66% 29.71 in 6.2 mi ESE 13.8 mph - N/A   Partly Cloudy
11:30 PM 87.8 °F 99.7 °F 77.0 °F 70% 29.71 in 6.2 mi ESE 12.7 mph - N/A   Partly Cloudy